EW9200 Weather Reports


Display with metric or nautical units.
time (UTC)temp
F
wind
direction
speed
MPH
gust
MPH
rain 1hr
in
rain 24hr
in
rain mn
in
humidity
%
barometer
mb
20260505001536 63 148 4.0 10.0 0.02 0.18 0.18 80 998.4
20260505001025 63 212 4.0 14.0 0.02 0.18 0.18 80 998.2
20260505000531 64 226 6.0 14.0 0.02 0.18 0.18 79 998.1
20260505000041 64 226 4.0 10.0 0.02 0.18 0.18 79 998.4
20260504235526 64 264 3.0 10.0 0.01 0.17 0.17 77 999.0
20260504235030 65 245 3.0 11.0 0.01 0.17 0.17 74 999.3
20260504234541 67 184 3.0 11.0 0.01 0.17 0.17 72 999.1
20260504234026 69 210 4.0 11.0 0.00 0.16 0.16 70 999.3
20260504233528 70 323 2.0 9.0 0.00 0.16 0.16 69 999.3
20260504233055 70 38 2.0 10.0 0.00 0.16 0.16 68 998.6
20260504232527 71 285 4.0 13.0 0.00 0.16 0.16 66 997.8
20260504232026 71 165 6.0 13.0 0.00 0.16 0.16 66 997.6
20260504231539 70 121 4.0 12.0 0.00 0.16 0.16 65 997.6
20260504231026 70 226 4.0 10.0 0.00 0.16 0.16 64 997.6
20260504230527 70 221 3.0 8.0 0.00 0.16 0.16 64 997.5
20260504230040 70 227 1.0 8.0 0.06 0.16 0.16 64 997.4
20260504225526 71 207 3.0 12.0 0.09 0.16 0.16 64 997.6
20260504225025 71 235 2.0 12.0 0.11 0.16 0.16 65 997.7
20260504224541 71 221 3.0 7.0 0.12 0.16 0.16 68 998.0
20260504224026 69 216 2.0 4.0 0.16 0.16 0.16 74 998.0
20260504223529 69 231 0.0 3.0 0.16 0.16 0.16 79 997.9
20260504223043 67 245 0.0 3.0 0.16 0.16 0.16 80 998.0
20260504222526 66 207 0.0 3.0 0.16 0.16 0.16 81 997.9
20260504222028 65 311 1.0 10.0 0.16 0.16 0.16 77 998.0
20260504221542 65 257 2.0 14.0 0.16 0.16 0.16 76 998.1
20260504221026 64 169 6.0 14.0 0.16 0.16 0.16 73 998.4
20260504220526 65 173 5.0 12.0 0.16 0.16 0.16 75 998.6
20260504220042 67 296 2.0 9.0 0.09 0.09 0.09 74 999.0
20260504215527 68 207 2.0 9.0 0.07 0.07 0.07 69 998.5
20260504215026 70 317 3.0 9.0 0.05 0.05 0.05 67 999.1
20260504214544 72 227 2.0 5.0 0.03 0.03 0.03 62 998.8
20260504214030 73 323 0.0 11.0 0.00 0.00 0.00 58 998.6
20260504213530 74 183 1.0 12.0 0.00 0.00 0.00 55 998.3
20260504213053 75 160 4.0 12.0 0.00 0.00 0.00 52 998.6
20260504212529 77 248 5.0 11.0 0.00 0.00 0.00 48 999.0
20260504212030 78 144 5.0 11.0 0.00 0.00 0.00 45 998.7
20260504211543 79 224 4.0 9.0 0.00 0.00 0.00 42 998.4
20260504211029 79 263 3.0 10.0 0.00 0.00 0.00 41 998.4
20260504210530 79 239 5.0 10.0 0.00 0.00 0.00 41 998.4
20260504210047 79 184 4.0 13.0 0.00 0.00 0.00 41 998.5
20260504205531 79 250 5.0 19.0 0.00 0.00 0.00 40 998.7
20260504205030 79 205 4.0 19.0 0.00 0.00 0.00 41 998.8
20260504204547 80 229 4.0 10.0 0.00 0.00 0.00 40 998.6
20260504204030 81 254 4.0 12.0 0.00 0.00 0.00 39 998.7
20260504203530 81 181 5.0 12.0 0.00 0.00 0.00 41 998.8
20260504203048 81 237 4.0 14.0 0.00 0.00 0.00 41 998.9
20260504202533 81 279 6.0 14.0 0.00 0.00 0.00 42 998.8
20260504202029 81 328 5.0 14.0 0.00 0.00 0.00 41 998.8
20260504201545 81 215 4.0 10.0 0.00 0.00 0.00 42 999.0
20260504201032 80 335 5.0 12.0 0.00 0.00 0.00 42 998.9
20260504200532 80 219 4.0 12.0 0.00 0.00 0.00 43 999.1
20260504200043 79 223 4.0 13.0 0.00 0.00 0.00 42 999.1
20260504195531 79 221 5.0 13.0 0.00 0.00 0.00 42 999.1
20260504195030 80 132 6.0 14.0 0.00 0.00 0.00 42 999.3
20260504194547 80 274 6.0 14.0 0.00 0.00 0.00 42 999.3
20260504194030 80 129 5.0 14.0 0.00 0.00 0.00 44 999.4
20260504193531 80 249 5.0 10.0 0.00 0.00 0.00 43 999.4
20260504193053 80 136 4.0 15.0 0.00 0.00 0.00 44 999.5
20260504192530 80 213 4.0 15.0 0.00 0.00 0.00 45 999.5
20260504192030 80 212 3.0 13.0 0.00 0.00 0.00 42 999.4
20260504191549 79 115 4.0 12.0 0.00 0.00 0.00 43 999.5
20260504191030 80 335 5.0 12.0 0.00 0.00 0.00 43 999.5
20260504190531 80 209 5.0 13.0 0.00 0.00 0.00 42 999.8
20260504190039 80 248 5.0 13.0 0.00 0.00 0.00 42 999.8
20260504185529 80 203 4.0 11.0 0.00 0.00 0.00 43 999.7
20260504185031 80 218 4.0 12.0 0.00 0.00 0.00 41 999.7
20260504184542 80 90 4.0 15.0 0.00 0.00 0.00 41 999.8
20260504184031 79 236 4.0 15.0 0.00 0.00 0.00 41 999.7
20260504183530 79 63 4.0 11.0 0.00 0.00 0.00 42 999.7
20260504183044 79 233 6.0 11.0 0.00 0.00 0.00 39 999.8
20260504182529 79 262 4.0 11.0 0.00 0.00 0.00 41 999.7
20260504182030 79 115 4.0 11.0 0.00 0.00 0.00 42 999.8
20260504181545 79 131 5.0 12.0 0.00 0.00 0.00 39 1000.0
20260504181030 79 247 5.0 12.0 0.00 0.00 0.00 42 999.9
20260504180531 79 259 4.0 13.0 0.00 0.00 0.00 42 1000.0
20260504180039 79 151 4.0 13.0 0.00 0.00 0.00 40 1000.1
20260504175530 79 296 5.0 11.0 0.00 0.00 0.00 42 1000.1
20260504175031 79 330 5.0 11.0 0.00 0.00 0.00 43 1000.1
20260504174545 78 168 3.0 10.0 0.00 0.00 0.00 45 1000.1
20260504174030 78 213 4.0 10.0 0.00 0.00 0.00 39 1000.2
20260504173529 78 193 5.0 11.0 0.00 0.00 0.00 40 1000.3
20260504173044 78 87 4.0 20.0 0.00 0.00 0.00 44 1000.4
20260504172529 77 210 5.0 20.0 0.00 0.00 0.00 45 1000.5
20260504172030 77 178 5.0 20.0 0.00 0.00 0.00 44 1000.8
20260504171548 77 207 3.0 10.0 0.00 0.00 0.00 47 1000.6
20260504171030 76 226 4.0 10.0 0.00 0.00 0.00 49 1000.9
20260504170530 76 214 3.0 10.0 0.00 0.00 0.00 49 1001.0
20260504151033 71 178 4.0 10.0 0.00 0.08 0.00 55 1002.5
20260504150529 71 194 3.0 11.0 0.00 0.08 0.00 58 1002.5
20260504141029 66 181 2.0 6.0 0.00 0.08 0.00 68 1003.2
20260504140532 65 215 2.0 6.0 0.00 0.08 0.00 67 1003.3
20260504130532 59 222 2.0 6.0 0.00 0.08 0.00 76 1003.9
20260504110529 44 0 0.0 0.0 0.00 0.08 0.00 92 1004.3
20260504100530 44 0 0.0 1.0 0.00 0.08 0.00 95 1004.6
20260504081542 44 229 0.0 1.0 0.00 0.08 0.00 92 1004.3
20260504081029 45 0 0.0 1.0 0.00 0.08 0.00 93 1004.3
20260504080529 44 0 0.0 1.0 0.00 0.08 0.00 92 1004.4
20260504050526 57 241 2.0 5.0 0.00 0.08 0.00 72 1005.8
20260504045529 57 203 2.0 5.0 0.00 0.08 0.08 74 1006.0
20260504045028 56 270 1.0 5.0 0.00 0.08 0.08 74 1005.9
20260504044536 56 251 0.0 4.0 0.00 0.08 0.08 75 1005.8
20260504044030 56 264 1.0 4.0 0.00 0.08 0.08 75 1005.9
20260504043529 56 215 0.0 4.0 0.00 0.08 0.08 75 1005.8
20260504043049 56 263 0.0 4.0 0.00 0.08 0.08 75 1005.9
20260504042528 56 221 1.0 3.0 0.00 0.08 0.08 75 1005.8
20260504042029 56 179 1.0 4.0 0.00 0.08 0.08 75 1005.8
20260504041544 56 216 1.0 4.0 0.00 0.08 0.08 75 1005.7
20260504041029 56 209 1.0 4.0 0.00 0.08 0.08 75 1005.8
20260504040526 56 175 1.0 4.0 0.00 0.08 0.08 75 1005.8
20260504040051 56 136 1.0 4.0 0.00 0.08 0.08 75 1006.0
20260504035529 56 201 1.0 5.0 0.00 0.08 0.08 75 1005.9
20260504035029 56 120 2.0 5.0 0.00 0.08 0.08 75 1006.0
20260504034536 56 0 1.0 5.0 0.00 0.08 0.08 74 1006.2
20260504034029 56 252 1.0 5.0 0.00 0.08 0.08 74 1006.2
20260504033529 56 200 1.0 4.0 0.00 0.08 0.08 74 1006.2
20260504033044 56 151 1.0 4.0 0.00 0.08 0.08 74 1006.2
20260504032530 56 227 1.0 3.0 0.00 0.08 0.08 74 1006.2
20260504032029 56 186 1.0 3.0 0.00 0.08 0.08 74 1006.4
20260504031544 56 221 1.0 3.0 0.00 0.08 0.08 74 1006.5
20260504031029 56 213 1.0 3.0 0.00 0.08 0.08 74 1006.3
20260504030528 56 167 1.0 2.0 0.00 0.08 0.08 74 1006.5
20260504030042 56 138 0.0 2.0 0.00 0.08 0.08 73 1006.6
20260504025528 56 148 1.0 4.0 0.00 0.08 0.08 73 1006.6
20260504025026 56 129 0.0 4.0 0.00 0.08 0.08 73 1006.6
20260504024538 56 0 0.0 2.0 0.00 0.08 0.08 72 1006.5
20260504024028 57 0 0.0 1.0 0.00 0.08 0.08 72 1006.5
20260504023529 57 0 0.0 2.0 0.00 0.08 0.08 71 1006.5
20260504023038 57 196 0.0 2.0 0.00 0.08 0.08 71 1006.4
20260504022529 57 0 0.0 1.0 0.00 0.08 0.08 70 1006.2
20260504022032 58 0 0.0 1.0 0.00 0.08 0.08 69 1006.2
20260504021547 58 0 0.0 2.0 0.00 0.08 0.08 68 1006.2
20260504021028 59 234 0.0 2.0 0.00 0.08 0.08 67 1006.2
20260504020528 59 230 0.0 2.0 0.00 0.08 0.08 66 1006.1
20260504020042 60 169 0.0 6.0 0.00 0.08 0.08 65 1006.1
20260504015530 60 168 0.0 6.0 0.00 0.08 0.08 65 1006.0
20260504015029 60 143 2.0 6.0 0.00 0.08 0.08 64 1006.1
20260504014545 61 185 1.0 6.0 0.00 0.08 0.08 64 1006.0
20260504014026 61 181 2.0 6.0 0.00 0.08 0.08 63 1005.9
20260504013526 61 162 1.0 5.0 0.00 0.08 0.08 63 1005.8
20260504013051 61 217 1.0 5.0 0.00 0.08 0.08 63 1005.8
20260504012531 61 201 2.0 5.0 0.00 0.08 0.08 62 1006.0
20260504012025 62 266 1.0 5.0 0.00 0.08 0.08 62 1005.9
20260504011545 62 219 2.0 5.0 0.00 0.08 0.08 61 1005.9
20260504011028 62 226 1.0 5.0 0.00 0.08 0.08 61 1005.9
20260504010529 62 195 2.0 5.0 0.00 0.08 0.08 60 1005.9
20260504010051 63 219 1.0 5.0 0.00 0.08 0.08 60 1005.9
20260504005529 63 163 1.0 4.0 0.00 0.08 0.08 59 1005.9
20260504005029 63 234 1.0 3.0 0.00 0.08 0.08 59 1005.8
20260504004545 64 221 1.0 6.0 0.00 0.08 0.08 58 1005.7
20260504004030 64 169 1.0 7.0 0.00 0.08 0.08 57 1005.8
20260504003528 65 123 1.0 7.0 0.00 0.08 0.08 56 1005.8
20260504003042 65 169 2.0 8.0 0.00 0.08 0.08 55 1005.8
20260504002528 65 176 2.0 9.0 0.00 0.08 0.08 55 1005.8
20260504002026 65 65 2.0 9.0 0.00 0.08 0.08 55 1005.9